Weather History for Kars, Turkey

Change the Weather History Date:

Tuesday, February 19, 2013

  Actual Average Record
Temperature  
Mean Temperature 14 °F -  
Max Temperature 27 °F 32 °F - ()
Min Temperature 0 °F 14 °F - ()
Degree Days  
Heating Degree Days 51    
Moisture  
Dew Point 12 °F    
Average Humidity 92    
Maximum Humidity 100    
Minimum Humidity 80    
Precipitation  
Precipitation 0.00 in 0.03 in - ()
Sea Level Pressure  
Sea Level Pressure 29.95 in    
Wind  
Wind Speed 1 mph ()    
Max Wind Speed 5 mph    
Max Gust Speed -    
Visibility 3.4 miles    
Events Fog , Snow    
T = Trace of Precipitation, MM = Missing Value Source: Averaged Metar Reports

Daily Weather History Graph

Daily Weather History Graph

Search for Another Location

Airport:

Trip Planner

Search our weather history database for the weather conditions in past years. The results will help you decide how hot, cold, wet, or windy it might be!

Date:

Astronomy

Feb. 19, 2013 Rise Set
Actual Time 5:56 AM EET 4:47 PM EET
Civil Twilight 5:28 AM EET 5:15 PM EET
Nautical Twilight 4:56 AM EET 5:47 PM EET
Astronomical Twilight 4:24 AM EET 6:18 PM EET
Moon 11:00 AM EET (2/19) 1:09 AM EET (2/19)
Length of Visible Light 11h 46m
Length of Day
10h 51m
Waxing Gibbous, 64% of the Moon is Illuminated
Feb 19
Waxing Gibbous
Feb 25
Full
Mar 4
Last Quarter
Mar 11
New
Mar 19
First Quarter

Hourly Weather History & Observations

Time (EET) Temp. Windchill Dew Point Humidity Pressure Visibility Wind Dir Wind Speed Gust Speed Precip Events Conditions
12:50 AM 21.2 °F - 19.4 °F 93% 29.89 in 1.9 mi SSE 1.2 mph - N/A Snow Light Snow
1:50 AM 21.2 °F - 19.4 °F 93% 29.89 in 1.9 mi West 1.2 mph - N/A Snow Light Snow
2:00 AM 20 °F - 20 °F 100%  in 2 mi West 1.2 mph - - Snow Light Snow
2:50 AM 19.4 °F 14.3 °F 19.4 °F 100% 29.89 in 1.9 mi West 3.5 mph - N/A Snow Light Snow
3:50 AM 17.6 °F - 17.6 °F 100% 29.89 in 1.9 mi Calm Calm - N/A Snow Light Snow
4:50 AM 14.0 °F 8.2 °F 14.0 °F 100% 29.89 in 1.9 mi SW 3.5 mph - N/A Snow Light Snow
6:50 AM 10.4 °F - 8.6 °F 92% 29.92 in 0.4 mi Calm Calm - N/A Fog , Snow Light Snow
7:50 AM 12.2 °F - 10.4 °F 92% 29.95 in 0.3 mi Calm Calm - N/A Fog Light Freezing Fog
8:00 AM 12 °F - 12 °F 98%  in 0 mi Calm Calm - - Fog Fog
8:50 AM 12.2 °F - 10.4 °F 92% 29.95 in 0.1 mi Calm Calm - N/A Fog Light Freezing Fog
9:50 AM 12.2 °F - 12.2 °F 100% 29.95 in 0.1 mi Calm Calm - N/A Fog Light Freezing Fog
10:50 AM 14.0 °F - 12.2 °F 93% 29.95 in 0.2 mi South 2.3 mph - N/A Fog Light Freezing Fog
11:50 AM 17.6 °F - 17.6 °F 100% 29.95 in - Calm Calm - N/A   Partly Cloudy
12:50 PM 21.2 °F - 21.2 °F 100% 29.95 in 5.0 mi Calm Calm - N/A   Scattered Clouds
1:50 PM 24.8 °F - 19.4 °F 80% 29.95 in 6.2 mi Calm Calm - N/A   Scattered Clouds
2:00 PM 24 °F - 20 °F 80%  in 6 mi Calm Calm - -   Partly Cloudy
2:50 PM 24.8 °F - 21.2 °F 86% 29.95 in 6.2 mi Calm Calm - N/A   Scattered Clouds
3:50 PM 19.4 °F - 17.6 °F 93% 29.95 in 6.2 mi Calm Calm - N/A   Scattered Clouds
4:50 PM 10.4 °F - 8.6 °F 92% 29.95 in 6.2 mi Calm Calm - N/A   Scattered Clouds
5:50 PM 14.0 °F - 12.2 °F 93% 29.98 in 6.2 mi NNW 1.2 mph - N/A   Partly Cloudy
6:50 PM 8.6 °F - 6.8 °F 92% 29.98 in 6.2 mi Calm Calm - N/A   Partly Cloudy
7:50 PM 5.0 °F -4.1 °F 3.2 °F 92% 29.98 in 6.2 mi WNW 4.6 mph - N/A   Partly Cloudy
8:00 PM 4 °F - 3 °F 96%  in 6 mi WNW 4.6 mph - -   Scattered Clouds
8:50 PM 5.0 °F -2.1 °F 1.4 °F 85% 30.01 in 6.2 mi WNW 3.5 mph - N/A   Partly Cloudy
9:50 PM 3.2 °F - -0.4 °F 85% 30.01 in 6.2 mi Calm Calm - N/A   Partly Cloudy
10:50 PM 1.4 °F - -2.2 °F 85% 29.98 in 2.5 mi Variable 1.2 mph - N/A Fog Patches of Fog
11:50 PM -0.4 °F - -4.0 °F 85% 30.01 in 0.1 mi Calm Calm - N/A Fog Light Freezing Fog